Starlink 33546

operational
NORAD ID: 62287 Int'l Des: 2024-237 Owner: SPXS Country: US Constellation: starlink
LEOCIRCULAR

关于 Starlink 33546

正在加载描述...

实时位置

正在加载3D地球...

即将过境

高度历史

Altitude vs Time

uPlot chart will show altitude changes over time

两行轨道根数

1 62287U 24237W 25352.29708638 .00029571 00000-0 10798-2 0 9994
2 62287 43.0004 316.0552 0001222 276.1047 83.9665 15.27581134 58652
Epoch: Dec 18, 2025 • Age: 9 hours

当前状态

高度 485.5 km
速度 7.62 km/s
星下点 -14.30°S, 175.52°W
发射日期 Dec 8, 2024
运行时间 1 years
类型 internet

技术详情

分类 Payload
质量 530.00 kg
干质量 500.00 kg
总质量 530.00 kg
长度 0.30 m
直径 4.10 m
跨度 29.00 m
形状 Box + pan
制造商 SPXS
平台类型 Starlink V2MO
阶段状态 In Orbit
所有者/国家 SPXS/US

大型星座

Loading constellations...